Waarnemingen

Advertentie
Mijn weer
Dunkerque, Frankrijk (7010): temperatuur & dauwpunt: 27.05.2020 10:00:00 - 02.06.2020 10:00:00 (CEST)Dunkerque, Frankrijk (7010): windsnelheid & windstoten: 27.05.2020 10:00:00 - 02.06.2020 10:00:00 (CEST)Dunkerque, Frankrijk (7010): windrichting: 27.05.2020 10:00:00 - 02.06.2020 10:00:00 (CEST)Dunkerque, Frankrijk (7010): luchtdruk: 27.05.2020 10:00:00 - 02.06.2020 10:00:00 (CEST)Dunkerque, Frankrijk (7010): zicht: 27.05.2020 10:00:00 - 02.06.2020 10:00:00 (CEST)Dunkerque, Frankrijk (7010): neerslag: 27.05.2020 10:00:00 - 02.06.2020 10:00:00 (CEST)
Datum & Tijd tt [°C] td [°C] ff [km/u] ff [kn] fx [km/u] fx [kn] dd ppp [hPa] vv [km] rr [mm]
02.06.2020 10:00:00 - - - - - - - - - -
02.06.2020 09:00:00 16,2 13,9 8 5 16 8 N 1019,6 10 0,0
02.06.2020 08:00:00 15,3 13,8 11 6 21 11 NNO 1019,7 10 0,0
02.06.2020 07:00:00 14,3 13,3 13 7 22 12 N 1019,8 10 0,0
02.06.2020 06:00:00 14,1 13,0 13 7 19 10 N 1019,8 10 0,0
02.06.2020 05:00:00 14,2 13,1 12 6 20 11 N 1019,7 15 0,0
02.06.2020 04:00:00 14,6 13,3 11 6 17 9 N 1020,0 - 0,0
02.06.2020 03:00:00 15,2 13,6 11 6 18 10 NNO 1020,4 - 0,0
02.06.2020 02:00:00 15,2 13,2 15 8 23 12 NO 1020,8 15 0,0
02.06.2020 01:00:00 15,5 13,0 15 8 25 13 NNO 1021,1 - 0,0
02.06.2020 00:00:00 16,2 12,6 18 10 28 15 NNO 1021,0 - 0,0
01.06.2020 23:00:00 16,4 11,8 20 11 32 17 NO 1021,0 - 0,0
01.06.2020 22:00:00 16,7 11,8 23 12 36 19 NNO 1020,5 10 0,0
01.06.2020 21:00:00 17,0 11,3 29 16 39 21 NNO 1020,1 10 0,0
01.06.2020 20:00:00 18,1 12,3 26 14 39 21 NO 1020,0 10 0,0
01.06.2020 19:00:00 18,7 12,4 27 15 38 20 NO 1020,2 10 0,0
01.06.2020 18:00:00 19,2 13,4 29 16 40 22 NNO 1020,5 10 0,0
01.06.2020 17:00:00 18,9 13,1 31 17 40 21 NNO 1020,7 15 0,0
01.06.2020 16:00:00 19,1 13,7 25 14 39 21 NNO 1021,1 10 0,0
01.06.2020 15:00:00 19,4 13,3 24 13 37 20 NNO 1021,3 10 0,0
01.06.2020 14:00:00 19,6 13,1 28 15 37 20 NNO 1021,5 15 0,0
01.06.2020 13:00:00 19,4 13,1 23 13 33 18 NNO 1022,0 10 0,0
01.06.2020 12:00:00 19,0 13,6 21 11 26 14 NNO 1022,2 10 0,0
01.06.2020 11:00:00 19,1 12,8 19 10 24 13 NO 1022,1 18 0,0
01.06.2020 10:00:00 18,4 12,4 14 7 18 10 NO 1022,0 10 0,0
01.06.2020 09:00:00 18,0 11,3 11 6 16 9 NO 1022,0 10 0,0
01.06.2020 08:00:00 17,1 10,2 11 6 23 12 O 1022,0 10 0,0
01.06.2020 07:00:00 16,0 11,0 18 10 30 16 O 1021,6 5 0,0
01.06.2020 06:00:00 15,6 12,7 22 12 31 17 ONO 1021,5 10 0,0
01.06.2020 05:00:00 15,8 13,8 23 12 31 17 ONO 1021,5 18 0,0
01.06.2020 04:00:00 15,9 13,7 21 12 30 16 ONO 1021,7 - 0,0
01.06.2020 03:00:00 15,7 13,5 19 10 28 15 NO 1021,8 - 0,0
01.06.2020 02:00:00 15,9 13,7 16 9 26 14 ONO 1021,8 - 0,0
01.06.2020 01:00:00 15,9 13,4 21 11 31 17 ONO 1021,9 - 0,0
01.06.2020 00:00:00 15,8 12,9 20 11 31 17 NO 1021,8 - 0,0
31.05.2020 23:00:00 15,8 12,7 24 13 38 20 NO 1021,6 18 0,0
31.05.2020 22:00:00 15,8 12,5 29 16 42 23 NNO 1021,5 10 0,0
31.05.2020 21:00:00 16,4 12,2 37 20 46 25 NNO 1021,2 10 0,0
31.05.2020 20:00:00 16,8 12,1 35 19 50 27 NNO 1021,1 10 0,0
31.05.2020 19:00:00 17,5 11,1 37 20 54 29 NNO 1021,1 10 0,0
31.05.2020 18:00:00 18,4 11,7 40 22 48 26 NNO 1021,2 10 0,0
31.05.2020 17:00:00 18,4 11,7 39 21 51 28 NNO 1021,5 10 0,0
31.05.2020 16:00:00 19,1 11,6 39 21 48 26 NNO 1021,8 10 0,0
31.05.2020 15:00:00 19,4 11,4 39 21 50 27 NNO 1022,0 10 0,0
31.05.2020 14:00:00 19,7 11,2 31 17 41 22 NNO 1022,3 10 0,0
31.05.2020 13:00:00 19,5 12,3 31 17 39 21 NNO 1022,5 10 0,0
31.05.2020 12:00:00 19,5 12,3 29 16 36 19 NO 1022,6 10 0,0
31.05.2020 11:00:00 19,5 11,8 20 11 24 13 NNO 1022,7 15 0,0
31.05.2020 10:00:00 18,9 9,7 14 8 20 11 NO 1022,8 10 0,0
31.05.2020 09:00:00 18,0 7,7 14 7 26 14 O 1022,6 10 0,0
31.05.2020 08:00:00 17,0 5,9 16 9 33 18 OZO 1022,2 10 0,0
31.05.2020 07:00:00 16,1 5,7 21 12 31 17 O 1022,0 15 0,0
31.05.2020 06:00:00 15,6 6,0 19 11 31 17 O 1021,7 10 0,0
31.05.2020 05:00:00 16,2 6,0 22 12 32 18 OZO 1021,3 15 0,0
31.05.2020 04:00:00 16,7 6,8 20 11 33 18 O 1021,3 - 0,0
31.05.2020 03:00:00 16,9 7,8 22 12 32 17 O 1021,4 - 0,0
31.05.2020 02:00:00 16,0 12,5 23 13 34 19 ONO 1021,5 - 0,0
31.05.2020 01:00:00 16,4 13,7 26 14 39 21 ONO 1021,5 - 0,0
31.05.2020 00:00:00 16,4 13,1 29 16 43 23 ONO 1021,3 - 0,0
30.05.2020 23:00:00 16,5 12,1 32 17 44 24 ONO 1021,2 - 0,0
30.05.2020 22:00:00 16,8 11,9 32 17 48 26 ONO 1020,9 10 0,0
30.05.2020 21:00:00 17,1 11,4 29 16 42 23 NO 1020,6 10 0,0
30.05.2020 20:00:00 18,0 11,1 32 17 43 23 NO 1020,8 10 0,0
30.05.2020 19:00:00 18,4 11,5 31 17 42 23 NO 1020,9 10 0,0
30.05.2020 18:00:00 18,9 11,2 35 19 45 24 NNO 1021,2 10 0,0
30.05.2020 17:00:00 19,8 11,6 35 19 42 23 NNO 1021,5 10 0,0
30.05.2020 16:00:00 20,3 12,0 32 17 40 22 NO 1021,7 10 0,0
30.05.2020 15:00:00 20,5 11,9 32 18 42 23 NO 1021,8 10 0,0
30.05.2020 14:00:00 20,0 12,0 31 17 39 21 NO 1022,2 10 0,0
30.05.2020 13:00:00 19,9 12,6 26 14 33 18 NNO 1022,6 10 0,0
30.05.2020 12:00:00 18,8 12,5 20 11 27 14 NNO 1023,0 10 0,0
30.05.2020 11:00:00 18,2 10,6 17 9 24 13 NO 1023,3 15 0,0
30.05.2020 10:00:00 17,5 10,8 18 10 24 13 NO 1023,4 10 0,0
30.05.2020 09:00:00 16,4 10,5 15 8 20 11 NO 1023,3 10 0,0
30.05.2020 08:00:00 15,7 8,9 15 8 23 13 O 1023,2 15 0,0
30.05.2020 07:00:00 14,3 9,3 14 8 19 10 ONO 1023,3 4,9 0,0
30.05.2020 06:00:00 13,6 10,0 11 6 26 14 O 1023,2 3,7 0,0
30.05.2020 05:00:00 14,0 10,8 21 11 26 14 O 1023,3 - 0,0
30.05.2020 04:00:00 14,6 11,7 16 9 31 17 O 1023,5 - 0,0
30.05.2020 03:00:00 15,1 13,5 17 9 23 12 O 1023,7 - 0,0
30.05.2020 02:00:00 15,2 13,7 16 9 26 14 NO 1024,1 - 0,0
30.05.2020 01:00:00 14,7 12,9 16 9 26 14 NO 1024,3 - 0,0
30.05.2020 00:00:00 14,6 12,3 21 12 30 16 NO 1024,5 - 0,0
29.05.2020 23:00:00 14,6 11,6 23 13 36 20 NO 1024,4 - 0,0
29.05.2020 22:00:00 14,8 11,0 24 13 33 18 NO 1024,5 10 0,0
29.05.2020 21:00:00 15,2 10,8 24 13 36 19 NO 1024,6 10 0,0
29.05.2020 20:00:00 15,6 10,1 29 16 39 21 NO 1024,8 15 0,0
29.05.2020 19:00:00 16,4 10,7 31 17 40 21 NNO 1025,1 10 0,0
29.05.2020 18:00:00 16,5 10,1 33 18 40 22 NNO 1025,6 10 0,0
29.05.2020 17:00:00 16,9 9,3 31 17 42 23 NNO 1026,1 10 0,0
29.05.2020 16:00:00 17,8 10,9 34 18 42 23 NNO 1026,5 10 0,0
29.05.2020 15:00:00 17,9 11,5 33 18 41 22 NO 1027,0 10 0,0
29.05.2020 14:00:00 17,7 11,3 31 17 40 22 NO 1027,6 10 0,0
29.05.2020 13:00:00 17,8 11,6 29 16 37 20 NO 1028,3 10 0,0
29.05.2020 12:00:00 17,3 11,1 23 12 29 15 NO 1028,7 10 0,0
29.05.2020 11:00:00 16,5 9,2 18 10 24 13 NO 1028,9 10 0,0
29.05.2020 10:00:00 15,7 8,4 16 9 23 12 NO 1029,0 10 0,0
29.05.2020 09:00:00 14,5 7,1 16 9 25 13 ONO 1029,1 10 0,0
29.05.2020 08:00:00 13,4 6,7 21 11 32 18 O 1029,1 10 0,0
29.05.2020 07:00:00 13,1 6,9 27 15 35 19 O 1029,3 10 0,0
29.05.2020 06:00:00 12,9 7,1 25 14 32 17 ONO 1029,5 10 0,0
29.05.2020 05:00:00 13,2 7,2 26 14 33 18 O 1029,5 - 0,0
29.05.2020 04:00:00 13,5 7,3 27 15 35 19 ONO 1029,7 - 0,0
29.05.2020 03:00:00 14,2 7,9 27 15 45 24 O 1029,9 - 0,0
29.05.2020 02:00:00 14,8 9,8 31 17 47 25 ONO 1029,9 - 0,0
29.05.2020 01:00:00 14,6 11,0 32 17 48 26 ONO 1030,2 - 0,0
29.05.2020 00:00:00 14,8 10,6 33 18 46 25 ONO 1030,4 - 0,0
28.05.2020 23:00:00 14,8 10,0 35 19 49 27 NO 1030,6 15 0,0
28.05.2020 22:00:00 14,6 9,8 33 18 49 26 NO 1030,6 10 0,0
28.05.2020 21:00:00 14,9 9,9 35 19 48 26 NO 1030,7 10 0,0
28.05.2020 20:00:00 15,4 10,4 35 19 46 25 NO 1030,9 10 0,0
28.05.2020 19:00:00 16,0 11,0 35 19 44 24 NNO 1031,3 10 0,0
28.05.2020 18:00:00 16,8 10,9 34 18 45 25 NO 1031,6 10 0,0
28.05.2020 17:00:00 16,9 10,5 36 19 45 25 NNO 1032,0 15 0,0
28.05.2020 16:00:00 16,9 11,0 35 19 46 25 NNO 1032,5 10 0,0
28.05.2020 15:00:00 17,3 10,7 36 20 46 25 NNO 1033,0 10 0,0
28.05.2020 14:00:00 17,5 10,1 34 18 45 25 NO 1033,5 10 0,0
28.05.2020 13:00:00 17,4 8,5 32 17 43 23 NO 1033,9 10 0,0
28.05.2020 12:00:00 17,1 9,0 29 16 42 23 NO 1034,1 10 0,0
28.05.2020 11:00:00 16,9 7,5 23 13 34 18 ONO 1034,5 15 0,0
28.05.2020 10:00:00 15,9 6,3 25 13 34 19 ONO 1034,8 10 0,0
28.05.2020 09:00:00 14,6 7,4 26 14 36 20 ONO 1035,2 10 0,0
28.05.2020 08:00:00 13,6 6,5 29 16 45 24 ONO 1035,0 10 0,0
28.05.2020 07:00:00 13,3 6,6 33 18 45 24 ONO 1034,9 10 0,0
28.05.2020 06:00:00 13,2 7,4 35 19 44 24 ONO 1034,8 10 0,0
28.05.2020 05:00:00 14,1 9,5 33 18 41 22 ONO 1034,5 - 0,0
28.05.2020 04:00:00 13,6 11,5 26 14 35 19 NO 1034,6 - 0,0
28.05.2020 03:00:00 13,2 11,3 27 15 38 21 NNO 1035,0 - 0,0
28.05.2020 02:00:00 12,8 10,7 28 15 36 20 NNO 1035,3 - 0,0
28.05.2020 01:00:00 12,5 10,4 26 14 32 17 NNO 1035,6 - 0,0
28.05.2020 00:00:00 12,8 10,7 25 13 31 17 NNO 1035,7 - 0,0
27.05.2020 23:00:00 13,5 11,5 18 10 25 14 NNO 1035,7 15 0,0
27.05.2020 22:00:00 14,3 11,3 18 10 25 14 NNO 1035,3 10 0,0
27.05.2020 21:00:00 15,0 10,8 17 9 24 13 NO 1035,2 10 0,0
27.05.2020 20:00:00 15,8 11,4 16 9 21 11 NO 1034,9 10 0,0
27.05.2020 19:00:00 16,5 11,4 16 8 23 13 NNO 1035,2 10 0,0
27.05.2020 18:00:00 17,2 12,3 18 10 24 13 NO 1035,3 10 0,0
27.05.2020 17:00:00 17,5 12,0 19 11 27 15 NO 1035,5 10 0,0
27.05.2020 16:00:00 17,4 11,2 22 12 26 14 NNO 1035,6 10 0,0
27.05.2020 15:00:00 17,0 11,3 19 10 25 14 NNO 1035,8 10 0,0
27.05.2020 14:00:00 16,9 10,7 16 9 23 13 NNO 1036,0 10 0,0
27.05.2020 13:00:00 16,2 11,4 18 10 26 14 N 1036,1 10 0,0
27.05.2020 12:00:00 16,0 11,4 19 10 25 13 N 1036,2 10 0,0
27.05.2020 11:00:00 16,4 10,9 12 6 17 9 NNO 1036,0 10 -
27.05.2020 10:00:00 16,3 9,7 11 6 14 8 NO 1035,7 10 0,0

tt = temperatuur
td = dauwpunt
ff = windsnelheid
fx = windstoten
dd = windrichting
ppp = luchtdruk
vv = zicht
rr = neerslag

Weerstations in de omgeving